SCP
0 0 0 0 0 0 0 0 0 0 0 0 1 1 1 1 1 1 1 1 1 1 1 1 1 1 1 1 1 1 1 1 1 1 1 1 1 1 1 1 1 1 1
0 0 0 0 0 1 0 0 0 0 0 0 1 1 1 1 1 1 1 1 1 1 1 1 1 1 1 1 1 1 1 1 1 1 1 1 1 1 1 1 1 1 1
0 0 0 0 0 0 0 0 0 0 0 0 0 1 1 1 1 1 0 0 0 0 0 0 0 0 1 1 1 1 1 1 1 1 1 1 1 1 1 1 1 1 1
0 0 0 0 0 0 0 0 0 0 0 0 0 0 1 1 1 0 0 0 0 0 0 0 0 0 0 1 1 1 1 1 1 1 1 1 1 1 1 1 1 1 1
0 0 0 0 0 0 0 0 0 0 0 0 0 0 1 1 1 0 0 0 0 0 0 0 0 0 0 0 1 1 1 1 1 1 1 1 1 1 1 1 1 1 1
0 0 0 0 0 0 0 0 0 0 0 0 0 0 0 0 0 0 0 0 0 0 0 0 0 0 0 0 0 1 1 1 1 1 1 1 1 1 1 1 1 1 1
0 0 0 0 0 0 0 0 0 0 0 0 0 0 0 0 0 0 0 0 0 0 0 0 0 0 0 0 0 0 1 1 1 1 1 1 1 1 1 1 1 1 1
0 0 0 0 0 0 0 0 0 0 0 0 0 0 0 0 0 0 0 0 0 0 0 0 0 0 0 0 0 0 0 1 1 1 1 1 1 1 1 1 1 1 1
0 0 0 0 0 0 0 0 0 1 1 1 1 1 0 0 0 0 0 0 0 0 1 0 0 0 0 0 0 0 0 0 0 0 1 1 1 1 1 1 1 1 1
0 0 0 0 0 0 0 0 0 1 1 1 1 1 1 1 0 0 0 0 0 1 1 1 0 0 0 0 0 0 0 0 0 0 0 1 1 1 1 1 1 1 1
0 0 0 0 0 0 0 0 0 1 1 1 1 1 1 1 0 0 0 0 0 0 1 1 1 1 1 1 0 0 0 0 0 0 0 0 1 1 1 1 1 1 1
0 0 0 0 0 1 0 0 0 0 1 1 1 1 1 1 0 0 0 0 0 0 1 1 1 1 1 1 1 0 0 0 0 0 0 0 0 1 1 1 0 0 1
0 0 0 0 0 0 0 0 0 0 0 0 1 1 1 0 0 0 0 0 0 0 1 1 1 1 1 1 1 0 0 0 0 0 0 0 0 0 1 1 1 1 1
0 0 0 0 0 0 0 0 0 0 0 0 1 1 1 0 0 0 0 0 0 0 1 1 1 1 1 1 1 1 0 0 0 0 0 0 0 0 0 1 1 1 1
0 0 0 0 0 0 0 0 0 0 1 1 1 1 0 0 0 0 0 0 0 0 1 1 1 1 1 1 1 1 0 0 0 0 0 0 0 0 0 0 0 0 0
0 0 0 0 0 0 0 1 1 1 1 1 1 1 0 0 0 0 0 0 0 0 1 1 1 1 1 1 1 0 0 0 0 0 0 0 0 0 0 0 0 0 0
0 0 0 0 0 0 0 1 1 1 1 1 1 1 1 0 0 0 0 0 0 0 1 1 1 1 1 1 0 0 0 0 0 0 0 0 0 0 0 0 0 0 0
1 0 0 0 0 0 0 1 1 1 1 1 1 1 0 0 0 0 0 0 0 0 1 1 1 1 0 0 0 0 0 0 0 0 0 0 0 0 0 0 0 0 0
1 0 0 0 0 0 0 1 1 1 1 1 1 0 0 0 0 0 1 0 0 0 1 1 1 0 0 0 0 0 0 0 0 0 0 0 0 0 0 0 0 0 0
1 0 0 0 0 0 0 1 1 1 1 1 0 0 0 0 0 0 0 1 1 1 1 1 1 0 0 0 0 0 0 0 0 0 0 0 0 0 0 0 0 0 0
0 0 0 0 0 0 0 0 0 0 0 0 0 0 0 0 0 0 0 0 0 0 1 1 1 0 0 0 0 0 0 0 0 0 0 0 0 0 0 0 0 0 0
0 0 0 0 0 0 0 0 0 0 0 0 0 0 0 0 0 0 0 0 0 0 0 1 1 1 0 0 0 0 0 0 0 0 0 0 0 0 0 0 0 0 0
0 0 0 0 0 0 0 0 0 0 0 0 0 0 0 0 0 0 0 0 0 0 0 0 0 0 0 0 0 0 0 0 0 0 0 0 0 0 0 0 0 0 0
1 1 1 1 0 0 0 0 0 0 0 0 0 0 0 0 0 0 0 0 0 0 0 0 0 0 0 0 0 0 0 0 0 0 0 0 0 0 0 0 0 0 0
1 1 1 1 1 0 0 0 0 0 0 0 0 0 0 0 0 0 0 0 0 0 0 0 0 0 0 0 0 0 0 0 0 0 0 0 0 0 0 0 0 0 0
1 1 1 1 1 1 0 0 0 0 0 0 0 0 0 0 0 0 0 0 0 0 0 0 0 0 0 0 0 0 0 0 0 0 0 0 0 0 0 0 0 0 0
Wind_Speed
4 4 4 3 4 4 4 4 5 6 6 7 7 7 7 7 7 6 6 12 12 11 10 11 11 11 9 8 8 9 8 8 7 6 6 6 6 5 4 5 5 4 4
3 3 4 4 4 4 4 4 5 5 5 5 6 7 6 6 7 6 6 9 13 13 12 12 11 11 11 10 10 9 9 8 8 7 7 6 6 5 5 5 4 4 4
3 3 3 3 3 3 3 4 5 4 4 5 6 6 5 6 6 7 7 5 6 11 13 12 12 11 11 10 10 9 8 8 8 8 7 6 6 5 5 5 5 6 5
2 3 2 2 3 3 2 3 3 3 4 4 4 4 4 5 6 6 6 6 5 6 9 12 11 11 11 11 10 9 8 8 8 8 7 7 6 5 5 5 6 6 6
2 2 2 1 2 2 2 2 3 3 3 3 3 3 4 4 5 5 6 6 6 5 5 7 9 10 10 10 9 9 8 7 7 7 7 7 7 7 6 5 5 6 6
2 2 2 1 2 2 2 2 3 2 2 2 3 3 3 3 3 4 5 5 5 6 6 5 4 6 9 10 10 9 9 8 7 6 6 6 6 6 6 5 5 5 6
2 2 1 2 1 1 2 2 2 2 2 1 1 2 3 3 4 3 3 3 4 5 4 5 4 4 4 8 9 9 8 7 6 6 5 5 5 5 5 4 4 4 4
2 2 2 2 2 1 2 2 2 1 1 1 1 0 1 2 3 3 2 2 3 3 4 4 4 4 4 3 6 8 8 7 7 6 5 5 5 5 5 4 4 4 4
2 2 2 1 1 2 2 2 1 1 1 0 1 2 1 1 1 2 2 2 3 3 3 3 4 4 4 3 3 6 7 7 6 6 5 5 5 4 4 4 3 3 4
2 2 2 2 2 2 2 2 2 1 1 1 0 1 2 1 1 0 1 2 2 2 2 2 2 3 4 3 4 6 7 7 6 5 5 5 5 4 4 3 3 3 3
2 3 2 2 2 2 3 2 2 2 1 1 1 1 0 1 2 1 1 0 1 1 2 2 1 2 3 3 2 5 6 6 6 5 4 4 5 4 4 3 3 3 3
3 3 3 3 3 3 3 3 3 3 2 1 1 1 1 1 1 1 1 1 1 1 1 1 1 2 2 2 3 5 5 5 5 5 5 4 4 4 3 3 3 3 4
3 4 3 4 3 3 3 3 3 3 3 2 2 1 1 1 1 2 2 1 1 1 0 0 1 1 1 2 2 3 3 4 5 5 5 5 5 5 3 3 3 3 4
3 4 4 4 4 4 4 4 3 3 3 3 2 2 1 1 1 1 2 2 2 2 1 0 0 1 1 1 3 2 2 3 3 3 4 4 5 5 4 3 4 4 4
3 4 4 4 4 4 4 4 3 3 3 2 2 2 2 1 1 1 1 2 3 3 2 1 0 1 1 1 1 1 1 3 2 2 3 3 4 4 4 3 4 4 5
4 4 5 5 4 5 4 4 4 3 4 2 2 2 2 2 1 1 2 2 3 4 3 1 1 1 1 1 1 2 1 2 0 1 2 2 3 3 3 3 3 4 5
4 4 5 5 4 5 5 4 5 4 5 4 4 4 3 3 2 2 2 2 2 3 3 2 1 1 2 2 1 2 1 1 1 1 1 2 2 3 3 3 3 3 4
4 5 5 5 4 4 5 5 5 5 5 4 4 4 4 3 4 3 2 3 3 3 3 3 2 2 2 2 2 2 2 1 1 2 0 1 1 2 3 3 3 3 4
4 4 5 5 5 4 4 5 5 5 5 5 4 4 4 4 4 3 4 3 3 3 3 3 2 1 2 1 2 2 2 2 2 1 2 2 2 3 3 3 3 3 3
4 4 4 4 4 4 4 4 5 5 5 4 4 4 4 4 4 4 4 4 3 3 3 3 2 2 2 2 2 2 2 1 2 1 1 2 2 4 4 3 3 3 3
4 4 4 4 3 3 3 3 4 4 5 4 5 5 4 3 3 3 3 4 4 4 3 3 3 3 2 2 2 2 3 2 2 2 2 2 2 2 3 3 2 2 3
4 4 4 4 3 2 1 2 4 5 5 5 5 4 3 4 3 3 3 4 4 4 4 4 3 4 4 3 2 3 3 3 2 1 3 3 2 2 2 1 2 1 2
4 4 4 4 4 3 2 3 3 4 4 4 4 4 2 2 3 4 4 4 4 4 5 5 5 5 4 3 4 4 4 4 3 2 3 3 2 3 2 0 1 1 2
4 4 4 4 4 3 3 4 4 6 5 5 4 4 4 4 4 3 3 4 4 4 4 5 5 4 3 3 4 4 4 4 4 2 3 4 3 3 2 2 2 1 2
4 5 4 5 5 4 4 4 4 5 5 5 4 4 4 4 2 2 4 4 3 2 1 2 4 2 2 2 3 3 3 3 4 3 2 3 3 4 3 3 2 3 2
4 4 4 4 5 5 4 5 6 4 5 4 4 4 2 2 3 3 4 3 3 2 2 2 2 3 3 3 3 4 4 4 3 3 1 2 3 3 3 2 1 1 2
Wind_Direction
78 80 80 74 67 64 66 62 64 66 64 60 57 55 53 55 53 49 59 59 55 56 58 60 61 64 69 73 73 71 69 67 69 69 69 79 79 78 77 74 76 75 67
83 78 77 75 68 60 56 62 66 65 64 60 57 55 54 56 58 52 56 65 62 57 54 58 61 62 63 62 64 66 65 63 63 64 65 72 74 72 70 71 72 72 66
86 85 73 79 79 76 70 62 65 59 62 66 61 53 53 52 55 55 53 50 64 65 57 55 55 56 56 58 59 64 67 65 62 60 60 65 67 68 68 69 69 66 64
80 78 74 77 82 81 74 66 64 64 61 55 56 55 56 57 54 52 52 51 47 53 66 58 53 54 58 59 58 61 65 64 60 59 57 60 62 62 62 67 66 65 60
92 93 75 73 89 87 84 78 68 58 62 56 60 58 56 58 53 49 52 51 51 48 58 72 64 57 57 56 55 55 58 61 59 58 57 58 59 59 55 59 69 65 59
104 97 107 112 97 95 90 92 89 76 64 64 68 64 60 62 62 51 45 49 46 48 48 51 63 68 60 53 50 47 47 49 50 54 55 59 58 60 57 55 57 58 54
131 117 117 104 109 119 120 110 101 102 89 81 96 88 85 78 67 62 50 47 53 52 53 49 47 49 68 64 49 42 36 39 44 48 50 55 53 54 54 52 50 50 47
155 148 152 132 140 132 137 121 123 98 83 50 324 254 151 127 91 59 53 48 45 49 45 45 49 45 38 49 55 40 30 34 38 39 46 51 48 45 42 38 41 38 35
168 170 163 168 167 177 159 159 171 175 159 125 330 319 308 35 65 101 55 46 42 32 36 32 37 42 42 46 51 51 33 30 30 30 36 41 39 39 38 36 37 30 24
178 182 189 207 196 197 189 187 187 207 215 198 124 338 339 8 281 180 123 55 32 26 27 24 26 33 31 37 53 44 31 20 20 22 28 31 31 36 33 29 40 27 13
194 198 209 211 214 209 207 196 197 219 216 239 250 244 310 262 273 266 263 333 36 29 16 6 11 22 19 19 24 42 24 13 12 11 15 20 23 27 23 28 32 18 9
202 200 212 217 216 213 211 203 202 209 233 237 256 256 255 268 266 272 271 276 322 9 13 2 349 10 1 4 34 37 20 11 7 7 10 14 14 11 16 30 25 16 11
199 204 207 217 216 211 208 203 207 211 214 224 242 262 277 297 305 286 272 279 293 286 269 255 358 352 349 360 40 25 38 25 15 11 11 14 15 8 12 18 12 8 5
204 204 207 214 216 213 206 204 217 216 223 220 227 230 240 262 273 269 274 275 271 264 251 258 63 0 348 336 37 309 63 52 22 9 2 6 9 5 7 10 6 5 3
205 208 202 210 209 214 217 211 218 211 221 224 221 218 234 234 248 260 265 271 280 280 282 300 305 352 318 348 354 302 28 64 24 6 357 355 354 355 359 358 1 1 357
203 205 206 209 204 206 209 214 217 215 216 210 229 237 239 234 230 234 246 267 279 284 292 311 296 285 320 291 334 308 6 119 74 1 352 345 346 346 341 346 354 354 353
204 205 210 214 209 209 207 202 213 210 220 216 214 223 226 231 224 224 232 250 262 269 270 288 290 276 263 276 245 285 292 270 148 119 320 319 341 333 330 329 332 342 344
214 211 211 214 213 216 215 209 208 214 222 225 223 225 225 216 226 230 229 239 247 255 255 262 258 270 274 285 295 287 287 293 285 121 289 297 318 320 323 325 326 325 330
216 217 212 217 217 217 216 216 214 217 221 225 226 227 227 221 225 225 231 235 234 238 244 242 249 264 264 278 282 278 276 290 287 177 205 236 261 286 299 307 307 309 316
212 220 218 218 222 221 221 219 223 223 223 226 229 231 232 233 235 231 232 233 231 228 229 229 229 230 236 262 267 264 264 267 275 261 258 259 234 242 256 269 278 297 311
216 215 223 220 221 226 228 231 227 227 222 223 228 231 233 254 295 272 258 239 228 224 220 225 227 235 230 232 251 260 276 275 264 269 270 260 247 247 235 223 247 292 303
216 215 222 220 221 224 217 254 255 227 225 223 225 229 219 216 219 226 255 274 271 246 233 227 232 241 244 232 240 257 267 270 265 245 280 280 273 271 278 310 29 336 304
210 212 220 218 224 219 179 200 244 246 232 229 227 223 219 223 215 214 203 215 238 264 269 261 248 248 251 241 234 244 257 269 276 291 283 277 278 277 273 283 64 337 309
213 213 216 216 221 215 185 197 215 233 235 234 230 227 219 217 215 221 209 217 222 221 236 248 256 261 262 255 251 260 268 269 267 247 253 272 278 283 279 261 170 232 287
219 218 214 215 222 217 185 197 212 226 233 236 236 234 233 226 174 213 225 218 218 212 131 340 346 350 354 328 293 252 250 252 256 249 247 270 281 286 274 255 182 184 238
221 223 223 221 225 230 188 194 215 227 230 230 231 226 225 246 160 188 227 225 226 223 202 187 203 207 217 206 237 254 258 258 263 262 234 271 277 284 278 254 249 241 242